• In Sweden
  • List of Countries
  • For 7 days
  • Water Temperature
  • Satellite Maps
  • Weather Map
  • Weather Widgets
  • user-avatar
    Login

    Hourly Weather Novoe Vysokoe

    Today, 23 June, Saturday

    Time Temperature Precipitation Wind Pressure Humidity
    00:00 +13°C° 0 mm 2 mps 738 mmHg 92%
    01:00 +12°C° 0 mm 2 mps 738 mmHg 91%
    02:00 +12°C° 0 mm 2 mps 738 mmHg 90%
    03:00 +12°C° 0 mm 2 mps 738 mmHg 89%
    04:00 +13°C° 0 mm 2 mps 738 mmHg 88%
    05:00 +13°C° 0 mm 2 mps 738 mmHg 86%
    06:00 +13°C° 0.3 mm 2 mps 738 mmHg 87%
    07:00 +13°C° 0.3 mm 2 mps 738 mmHg 88%
    08:00 +14°C° 0.3 mm 2 mps 738 mmHg 89%
    09:00 +13°C° 0.7 mm 3 mps 738 mmHg 90%
    10:00 +13°C° 0.7 mm 3 mps 738 mmHg 92%
    11:00 +13°C° 0.7 mm 4 mps 738 mmHg 93%
    12:00 +14°C° 0.8 mm 4 mps 737 mmHg 93%
    13:00 +14°C° 0.8 mm 4 mps 737 mmHg 93%
    14:00 +15°C° 0.8 mm 4 mps 736 mmHg 92%
    15:00 +15°C° 3.1 mm 4 mps 736 mmHg 94%
    16:00 +14°C° 3.1 mm 4 mps 735 mmHg 95%
    17:00 +14°C° 3.1 mm 4 mps 735 mmHg 96%
    18:00 +14°C° 1.1 mm 4 mps 735 mmHg 96%
    19:00 +14°C° 1.1 mm 4 mps 734 mmHg 97%
    20:00 +14°C° 1.1 mm 3 mps 734 mmHg 97%
    21:00 +16°C° 0.5 mm 3 mps 733 mmHg 97%
    22:00 +15°C° 0.5 mm 4 mps 732 mmHg 97%
    23:00 +15°C° 0.5 mm 4 mps 732 mmHg 97%

    Tomorrow, 24 June, Sunday

    Time Temperature Precipitation Wind Pressure Humidity
    00:00 +17°C° 2 mm 4 mps 731 mmHg 97%
    01:00 +17°C° 2 mm 4 mps 731 mmHg 96%
    02:00 +18°C° 2 mm 4 mps 731 mmHg 96%
    03:00 +18°C° 0.4 mm 4 mps 730 mmHg 96%
    04:00 +18°C° 0.4 mm 4 mps 730 mmHg 96%
    05:00 +18°C° 0.4 mm 4 mps 730 mmHg 96%
    06:00 +17°C° 0.2 mm 5 mps 730 mmHg 95%
    07:00 +17°C° 0.2 mm 5 mps 731 mmHg 94%
    08:00 +16°C° 0.2 mm 6 mps 731 mmHg 92%
    09:00 +15°C° 0.1 mm 6 mps 732 mmHg 90%
    10:00 +14°C° 0.1 mm 6 mps 732 mmHg 87%
    11:00 +13°C° 0.1 mm 6 mps 733 mmHg 84%
    12:00 +13°C° 0 mm 6 mps 734 mmHg 80%
    13:00 +14°C° 0 mm 6 mps 734 mmHg 75%
    14:00 +14°C° 0 mm 6 mps 735 mmHg 71%
    15:00 +14°C° 0 mm 5 mps 735 mmHg 70%
    16:00 +15°C° 0 mm 5 mps 736 mmHg 69%
    17:00 +15°C° 0 mm 5 mps 736 mmHg 69%
    18:00 +14°C° 0 mm 4 mps 737 mmHg 74%
    19:00 +13°C° 0 mm 3 mps 737 mmHg 80%
    20:00 +13°C° 0 mm 2 mps 738 mmHg 85%
    21:00 +12°C° 0 mm 2 mps 738 mmHg 89%
    22:00 +10°C° 0 mm 2 mps 738 mmHg 92%
    23:00 +9°C° 0 mm 2 mps 739 mmHg 95%

    Day after tomorrow, 25 June, Monday

    Time Temperature Precipitation Wind Pressure Humidity
    00:00 +9°C° 0 mm 2 mps 739 mmHg 96%
    01:00 +8°C° 0 mm 2 mps 739 mmHg 96%
    02:00 +8°C° 0 mm 2 mps 739 mmHg 96%
    03:00 +9°C° 0 mm 2 mps 740 mmHg 95%
    04:00 +9°C° 0 mm 2 mps 740 mmHg 94%
    05:00 +10°C° 0 mm 2 mps 740 mmHg 93%
    06:00 +13°C° 0 mm 2 mps 740 mmHg 86%
    07:00 +14°C° 0 mm 3 mps 740 mmHg 79%
    08:00 +17°C° 0 mm 3 mps 741 mmHg 72%
    09:00 +18°C° 0 mm 3 mps 741 mmHg 67%
    10:00 +19°C° 0 mm 4 mps 741 mmHg 62%
    11:00 +20°C° 0 mm 4 mps 741 mmHg 58%
    12:00 +20°C° 0.2 mm 5 mps 741 mmHg 58%
    13:00 +20°C° 0.2 mm 5 mps 741 mmHg 59%
    14:00 +20°C° 0.2 mm 5 mps 741 mmHg 59%
    15:00 +20°C° 0.2 mm 4 mps 741 mmHg 62%
    16:00 +20°C° 0.2 mm 4 mps 741 mmHg 65%
    17:00 +19°C° 0.2 mm 3 mps 741 mmHg 68%
    18:00 +18°C° 0.1 mm 3 mps 741 mmHg 75%
    19:00 +16°C° 0.1 mm 2 mps 741 mmHg 81%
    20:00 +14°C° 0.1 mm 2 mps 741 mmHg 87%
    21:00 +14°C° 0 mm 2 mps 742 mmHg 90%
    22:00 +13°C° 0 mm 2 mps 742 mmHg 92%
    23:00 +12°C° 0 mm 2 mps 742 mmHg 95%

    26 June, Tuesday

    Time Temperature Precipitation Wind Pressure Humidity
    00:00 +10°C° 0 mm 2 mps 742 mmHg 95%
    01:00 +10°C° 0 mm 2 mps 742 mmHg 96%
    02:00 +9°C° 0 mm 2 mps 742 mmHg 97%
    03:00 +10°C° 0 mm 2 mps 743 mmHg 96%
    04:00 +10°C° 0 mm 2 mps 743 mmHg 96%
    05:00 +12°C° 0 mm 2 mps 743 mmHg 95%
    06:00 +13°C° 0 mm 2 mps 743 mmHg 88%
    07:00 +15°C° 0 mm 2 mps 743 mmHg 82%
    08:00 +17°C° 0 mm 2 mps 743 mmHg 75%
    09:00 +17°C° 0.3 mm 3 mps 743 mmHg 74%
    10:00 +18°C° 0.3 mm 3 mps 743 mmHg 73%
    11:00 +19°C° 0.3 mm 3 mps 743 mmHg 72%
    12:00 +19°C° 0.5 mm 3 mps 743 mmHg 72%
    13:00 +19°C° 0.5 mm 3 mps 743 mmHg 71%
    14:00 +19°C° 0.5 mm 3 mps 743 mmHg 71%
    15:00 +19°C° 0.3 mm 3 mps 743 mmHg 72%
    16:00 +19°C° 0.3 mm 2 mps 743 mmHg 73%
    17:00 +19°C° 0.3 mm 2 mps 742 mmHg 74%
    18:00 +18°C° 0.3 mm 2 mps 742 mmHg 79%
    19:00 +16°C° 0.3 mm 1 mps 742 mmHg 85%
    20:00 +15°C° 0.3 mm 1 mps 742 mmHg 90%
    21:00 +14°C° 0.2 mm 1 mps 742 mmHg 91%
    22:00 +14°C° 0.2 mm 1 mps 743 mmHg 92%
    23:00 +13°C° 0.2 mm 1 mps 743 mmHg 93%

    27 June, Wednesday

    Time Temperature Precipitation Wind Pressure Humidity
    00:00 +12°C° 0 mm 1 mps 743 mmHg 94%
    01:00 +12°C° 0 mm 1 mps 743 mmHg 94%
    02:00 +12°C° 0 mm 1 mps 743 mmHg 95%
    03:00 +12°C° 0 mm 1 mps 743 mmHg 95%
    04:00 +12°C° 0 mm 1 mps 743 mmHg 95%
    05:00 +13°C° 0 mm 1 mps 743 mmHg 95%
    06:00 +14°C° 0 mm 1 mps 743 mmHg 90%
    07:00 +16°C° 0 mm 1 mps 743 mmHg 86%
    08:00 +18°C° 0 mm 2 mps 743 mmHg 81%
    09:00 +19°C° 0.8 mm 2 mps 743 mmHg 77%
    10:00 +20°C° 0.8 mm 2 mps 743 mmHg 73%
    11:00 +21°C° 0.8 mm 2 mps 743 mmHg 70%
    12:00 +21°C° 1 mm 2 mps 742 mmHg 70%
    13:00 +21°C° 1 mm 2 mps 742 mmHg 70%
    14:00 +21°C° 1 mm 2 mps 742 mmHg 71%
    15:00 +21°C° 0.7 mm 2 mps 742 mmHg 74%
    16:00 +21°C° 0.7 mm 2 mps 742 mmHg 78%
    17:00 +20°C° 0.7 mm 2 mps 742 mmHg 81%
    18:00 +19°C° 0.3 mm 2 mps 742 mmHg 84%
    19:00 +18°C° 0.3 mm 2 mps 742 mmHg 87%
    20:00 +16°C° 0.3 mm 2 mps 742 mmHg 90%
    21:00 +16°C° 0.2 mm 2 mps 742 mmHg 92%
    22:00 +15°C° 0.2 mm 2 mps 742 mmHg 93%
    23:00 +14°C° 0.2 mm 2 mps 742 mmHg 94%

    28 June, Thursday

    Time Temperature Precipitation Wind Pressure Humidity
    00:00 +13°C° 0.2 mm 3 mps 742 mmHg 95%
    01:00 +13°C° 0.2 mm 3 mps 742 mmHg 95%
    02:00 +13°C° 0.2 mm 3 mps 742 mmHg 96%
    03:00 +13°C° 0 mm 3 mps 742 mmHg 96%
    04:00 +14°C° 0 mm 3 mps 742 mmHg 96%
    05:00 +14°C° 0 mm 3 mps 742 mmHg 96%
    06:00 +15°C° 0.1 mm 4 mps 742 mmHg 93%
    07:00 +17°C° 0.1 mm 4 mps 742 mmHg 90%
    08:00 +18°C° 0.1 mm 4 mps 742 mmHg 87%
    09:00 +19°C° 0.6 mm 4 mps 742 mmHg 84%
    10:00 +20°C° 0.6 mm 4 mps 742 mmHg 82%
    11:00 +21°C° 0.6 mm 5 mps 741 mmHg 79%
    12:00 +21°C° 0.6 mm 5 mps 741 mmHg 78%
    13:00 +22°C° 0.6 mm 4 mps 741 mmHg 77%
    14:00 +22°C° 0.6 mm 4 mps 741 mmHg 75%
    15:00 +22°C° 0.6 mm 4 mps 741 mmHg 78%
    16:00 +21°C° 0.6 mm 4 mps 741 mmHg 82%
    17:00 +20°C° 0.6 mm 4 mps 740 mmHg 85%
    18:00 +20°C° 0.4 mm 4 mps 740 mmHg 85%
    19:00 +19°C° 0.4 mm 4 mps 740 mmHg 85%
    20:00 +18°C° 0.4 mm 4 mps 740 mmHg 85%
    21:00 +18°C° 0.2 mm 4 mps 740 mmHg 85%
    22:00 +17°C° 0.2 mm 4 mps 740 mmHg 85%
    23:00 +17°C° 0.2 mm 4 mps 739 mmHg 85%
    Show more